Time,TemperatureF,DewpointF,PressureIn,WindDirection,WindDirectionDegrees,WindSpeedMPH,WindSpeedGustMPH,Humidity,HourlyPrecipIn,Conditions,Clouds,dailyrainin,SoftwareType,DateUTC
2013-01-03 00:00:00,37.9,33.5,30.15,NW,312,0.0,0.0,84,0.00,,---,0.00,VWS V14.01,2013-01-03 05:00:00,
2013-01-03 00:01:00,37.9,33.5,30.15,NW,312,0.0,0.0,84,0.00,,---,0.00,VWS V14.01,2013-01-03 05:01:00,
2013-01-03 00:02:00,37.8,33.4,30.16,NW,312,0.0,0.0,84,0.00,,---,0.00,VWS V14.01,2013-01-03 05:02:00,
2013-01-03 00:03:00,37.7,33.6,30.16,NW,312,0.0,0.0,85,0.00,,---,0.00,VWS V14.01,2013-01-03 05:03:00,
2013-01-03 00:10:00,37.7,33.3,30.15,NW,312,0.0,0.0,84,0.00,,---,0.00,VWS V14.01,2013-01-03 05:10:00,
2013-01-03 00:15:00,37.8,33.4,30.15,NW,312,0.0,0.0,84,0.00,,---,0.00,VWS V14.01,2013-01-03 05:15:00,
2013-01-03 00:20:00,37.8,33.4,30.15,NW,312,0.0,0.0,84,0.00,,---,0.00,VWS V14.01,2013-01-03 05:20:00,
2013-01-03 00:25:00,37.8,33.4,30.15,NW,312,0.0,2.0,84,0.00,,---,0.00,VWS V14.01,2013-01-03 05:25:00,
2013-01-03 00:30:00,37.7,33.6,30.14,NW,312,0.0,0.0,85,0.00,,---,0.00,VWS V14.01,2013-01-03 05:30:00,
2013-01-03 00:35:00,37.5,33.1,30.14,NW,312,0.0,0.0,84,0.00,,---,0.00,VWS V14.01,2013-01-03 05:35:00,
2013-01-03 00:40:00,37.3,33.2,30.14,NW,312,0.0,0.0,85,0.00,,---,0.00,VWS V14.01,2013-01-03 05:40:00,
2013-01-03 00:45:00,37.3,33.5,30.14,NW,312,0.0,0.0,86,0.00,,---,0.00,VWS V14.01,2013-01-03 05:45:00,
2013-01-03 00:50:00,37.2,33.1,30.14,NW,312,0.0,0.0,85,0.00,,---,0.00,VWS V14.01,2013-01-03 05:50:00,
2013-01-03 00:55:00,37.2,33.1,30.14,NW,312,0.0,0.0,85,0.00,,---,0.00,VWS V14.01,2013-01-03 05:55:00,
2013-01-03 01:00:00,37.1,33.0,30.15,NW,312,0.0,0.0,85,0.00,,---,0.00,VWS V14.01,2013-01-03 06:00:00,
2013-01-03 01:06:00,36.9,33.1,30.15,NW,312,0.0,0.0,86,0.00,,---,0.00,VWS V14.01,2013-01-03 06:06:00,
2013-01-03 01:10:00,36.9,33.1,30.15,NW,312,0.0,0.0,86,0.00,,---,0.00,VWS V14.01,2013-01-03 06:10:00,
2013-01-03 01:11:00,36.9,32.8,30.15,NW,312,0.0,0.0,85,0.00,,---,0.00,VWS V14.01,2013-01-03 06:11:00,
2013-01-03 01:16:00,36.9,32.8,30.15,NW,312,0.0,0.0,85,0.00,,---,0.00,VWS V14.01,2013-01-03 06:16:00,
2013-01-03 01:20:00,37.0,32.6,30.15,NW,312,0.0,0.0,84,0.00,,---,0.00,VWS V14.01,2013-01-03 06:20:00,
2013-01-03 01:21:00,37.0,32.6,30.15,NW,312,0.0,0.0,84,0.00,,---,0.00,VWS V14.01,2013-01-03 06:21:00,
2013-01-03 01:26:00,37.1,33.3,30.15,NW,312,0.0,0.0,86,0.00,,---,0.00,VWS V14.01,2013-01-03 06:26:00,
2013-01-03 01:30:00,37.0,33.2,30.15,NW,312,0.0,0.0,86,0.00,,---,0.00,VWS V14.01,2013-01-03 06:30:00,
2013-01-03 01:31:00,37.0,33.2,30.15,NW,312,0.0,0.0,86,0.00,,---,0.00,VWS V14.01,2013-01-03 06:31:00,
2013-01-03 01:36:00,37.0,33.2,30.15,NW,312,0.0,0.0,86,0.00,,---,0.00,VWS V14.01,2013-01-03 06:36:00,
2013-01-03 01:40:00,37.0,33.5,30.14,NW,312,0.0,0.0,87,0.00,,---,0.00,VWS V14.01,2013-01-03 06:40:00,
2013-01-03 01:41:00,36.9,33.4,30.14,NW,312,0.0,0.0,87,0.00,,---,0.00,VWS V14.01,2013-01-03 06:41:00,
2013-01-03 01:46:00,36.8,33.0,30.15,NW,312,0.0,0.0,86,0.00,,---,0.00,VWS V14.01,2013-01-03 06:46:00,
2013-01-03 01:50:00,36.9,33.1,30.14,NW,312,0.0,0.0,86,0.00,,---,0.00,VWS V14.01,2013-01-03 06:50:00,
2013-01-03 01:51:00,36.9,33.1,30.14,NW,312,0.0,0.0,86,0.00,,---,0.00,VWS V14.01,2013-01-03 06:51:00,
2013-01-03 01:57:00,37.0,33.5,30.14,NW,312,0.0,0.0,87,0.00,,---,0.00,VWS V14.01,2013-01-03 06:57:00,
2013-01-03 02:00:00,37.0,33.2,30.14,NW,312,0.0,0.0,86,0.00,,---,0.00,VWS V14.01,2013-01-03 07:00:00,
2013-01-03 02:02:00,37.0,32.9,30.14,NW,312,0.0,0.0,85,0.00,,---,0.00,VWS V14.01,2013-01-03 07:02:00,
2013-01-03 02:07:00,37.1,33.0,30.14,NW,312,0.0,0.0,85,0.00,,---,0.00,VWS V14.01,2013-01-03 07:07:00,
2013-01-03 02:10:00,37.2,33.1,30.15,NW,312,0.0,0.0,85,0.00,,---,0.00,VWS V14.01,2013-01-03 07:10:00,
2013-01-03 02:12:00,37.4,33.3,30.14,NW,312,0.0,0.0,85,0.00,,---,0.00,VWS V14.01,2013-01-03 07:12:00,
2013-01-03 02:17:00,37.6,33.5,30.15,NW,312,0.0,0.0,85,0.00,,---,0.00,VWS V14.01,2013-01-03 07:17:00,
2013-01-03 02:20:00,37.7,33.6,30.15,NW,312,1.0,2.0,85,0.00,,---,0.00,VWS V14.01,2013-01-03 07:20:00,
2013-01-03 02:22:00,37.6,33.5,30.15,NW,312,1.0,2.0,85,0.00,,---,0.00,VWS V14.01,2013-01-03 07:22:00,
2013-01-03 02:27:00,37.4,33.3,30.15,NW,312,0.0,2.0,85,0.00,,---,0.00,VWS V14.01,2013-01-03 07:27:00,
2013-01-03 02:30:00,37.4,33.3,30.15,NW,312,0.0,2.0,85,0.00,,---,0.00,VWS V14.01,2013-01-03 07:30:00,
2013-01-03 02:32:00,37.3,33.5,30.15,NW,312,0.0,0.0,86,0.00,,---,0.00,VWS V14.01,2013-01-03 07:32:00,
2013-01-03 02:37:00,37.2,33.1,30.15,NW,312,0.0,0.0,85,0.00,,---,0.00,VWS V14.01,2013-01-03 07:37:00,
2013-01-03 02:40:00,37.2,33.1,30.15,NW,312,0.0,0.0,85,0.00,,---,0.00,VWS V14.01,2013-01-03 07:40:00,
2013-01-03 02:43:00,37.2,33.4,30.16,NW,312,0.0,0.0,86,0.00,,---,0.00,VWS V14.01,2013-01-03 07:43:00,
2013-01-03 02:48:00,37.3,33.8,30.16,NW,312,0.0,0.0,87,0.00,,---,0.00,VWS V14.01,2013-01-03 07:48:00,
2013-01-03 02:50:00,37.3,33.8,30.16,NW,312,0.0,0.0,87,0.00,,---,0.00,VWS V14.01,2013-01-03 07:50:00,
2013-01-03 02:53:00,37.3,33.8,30.15,NW,312,0.0,0.0,87,0.00,,---,0.00,VWS V14.01,2013-01-03 07:53:00,
2013-01-03 02:58:00,37.3,33.8,30.15,NW,312,0.0,0.0,87,0.00,,---,0.00,VWS V14.01,2013-01-03 07:58:00,
2013-01-03 03:00:00,37.3,33.8,30.15,NW,312,0.0,0.0,87,0.00,,---,0.00,VWS V14.01,2013-01-03 08:00:00,
2013-01-03 03:03:00,37.2,33.7,30.16,NW,312,0.0,0.0,87,0.00,,---,0.00,VWS V14.01,2013-01-03 08:03:00,
2013-01-03 03:08:00,37.1,33.6,30.16,NW,312,0.0,0.0,87,0.00,,---,0.00,VWS V14.01,2013-01-03 08:08:00,
2013-01-03 03:10:00,37.1,33.6,30.16,NW,312,0.0,0.0,87,0.00,,---,0.00,VWS V14.01,2013-01-03 08:10:00,
2013-01-03 03:13:00,37.0,33.8,30.15,NW,312,0.0,0.0,88,0.00,,---,0.00,VWS V14.01,2013-01-03 08:13:00,
2013-01-03 03:18:00,36.9,33.7,30.15,NW,312,0.0,0.0,88,0.00,,---,0.00,VWS V14.01,2013-01-03 08:18:00,
2013-01-03 03:20:00,36.9,33.7,30.15,NW,312,0.0,0.0,88,0.00,,---,0.00,VWS V14.01,2013-01-03 08:20:00,
2013-01-03 03:24:00,36.9,33.1,30.15,NW,312,0.0,0.0,86,0.00,,---,0.00,VWS V14.01,2013-01-03 08:24:00,
2013-01-03 03:29:00,37.0,33.2,30.15,NW,312,0.0,0.0,86,0.00,,---,0.00,VWS V14.01,2013-01-03 08:29:00,
2013-01-03 03:30:00,37.0,33.2,30.15,NW,312,0.0,0.0,86,0.00,,---,0.00,VWS V14.01,2013-01-03 08:30:00,
2013-01-03 03:34:00,37.2,33.1,30.15,NW,312,0.0,0.0,85,0.00,,---,0.00,VWS V14.01,2013-01-03 08:34:00,
2013-01-03 03:39:00,37.2,33.7,30.15,NW,312,0.0,0.0,87,0.00,,---,0.00,VWS V14.01,2013-01-03 08:39:00,
2013-01-03 03:40:00,37.3,33.8,30.15,NW,312,0.0,0.0,87,0.00,,---,0.00,VWS V14.01,2013-01-03 08:40:00,
2013-01-03 03:44:00,37.1,33.3,30.15,NW,312,0.0,0.0,86,0.00,,---,0.00,VWS V14.01,2013-01-03 08:44:00,
2013-01-03 03:49:00,37.2,33.4,30.14,NW,312,0.0,0.0,86,0.00,,---,0.00,VWS V14.01,2013-01-03 08:49:00,
2013-01-03 03:50:00,37.2,33.4,30.14,NW,312,0.0,0.0,86,0.00,,---,0.00,VWS V14.01,2013-01-03 08:50:00,
2013-01-03 03:54:00,37.4,33.9,30.14,NW,312,0.0,0.0,87,0.00,,---,0.00,VWS V14.01,2013-01-03 08:54:00,
2013-01-03 04:00:00,37.2,33.4,30.15,NW,312,0.0,0.0,86,0.00,,---,0.00,VWS V14.01,2013-01-03 09:00:00,
2013-01-03 04:05:00,37.3,33.5,30.14,NW,312,0.0,0.0,86,0.00,,---,0.00,VWS V14.01,2013-01-03 09:05:00,
2013-01-03 04:10:00,37.4,33.6,30.14,NW,312,0.0,0.0,86,0.00,,---,0.00,VWS V14.01,2013-01-03 09:10:00,
2013-01-03 04:15:00,37.4,33.6,30.15,NW,312,0.0,0.0,86,0.00,,---,0.00,VWS V14.01,2013-01-03 09:15:00,
2013-01-03 04:20:00,37.5,33.7,30.14,NW,312,0.0,0.0,86,0.00,,---,0.00,VWS V14.01,2013-01-03 09:20:00,
2013-01-03 04:25:00,37.4,33.6,30.14,NW,312,0.0,0.0,86,0.00,,---,0.00,VWS V14.01,2013-01-03 09:25:00,
2013-01-03 04:30:00,37.3,33.8,30.13,NW,312,0.0,0.0,87,0.00,,---,0.00,VWS V14.01,2013-01-03 09:30:00,
2013-01-03 04:35:00,37.2,33.4,30.14,NW,312,0.0,0.0,86,0.00,,---,0.00,VWS V14.01,2013-01-03 09:35:00,
2013-01-03 04:40:00,37.3,33.5,30.14,NW,312,0.0,0.0,86,0.00,,---,0.00,VWS V14.01,2013-01-03 09:40:00,
2013-01-03 04:41:00,37.3,33.5,30.14,NW,312,0.0,0.0,86,0.00,,---,0.00,VWS V14.01,2013-01-03 09:41:00,
2013-01-03 04:46:00,37.4,33.9,30.14,NW,312,0.0,0.0,87,0.00,,---,0.00,VWS V14.01,2013-01-03 09:46:00,
2013-01-03 04:50:00,37.4,33.6,30.14,NW,312,0.0,0.0,86,0.00,,---,0.00,VWS V14.01,2013-01-03 09:50:00,
2013-01-03 04:51:00,37.4,33.9,30.14,NW,312,0.0,0.0,87,0.00,,---,0.00,VWS V14.01,2013-01-03 09:51:00,
2013-01-03 04:56:00,37.3,33.8,30.14,NW,312,0.0,0.0,87,0.00,,---,0.00,VWS V14.01,2013-01-03 09:56:00,
2013-01-03 05:00:00,37.4,33.9,30.14,NW,312,0.0,0.0,87,0.00,,---,0.00,VWS V14.01,2013-01-03 10:00:00,
2013-01-03 05:01:00,37.4,33.9,30.14,NW,312,0.0,0.0,87,0.00,,---,0.00,VWS V14.01,2013-01-03 10:01:00,
2013-01-03 05:06:00,37.4,33.6,30.14,NW,312,1.0,2.0,86,0.00,,---,0.00,VWS V14.01,2013-01-03 10:06:00,
2013-01-03 05:10:00,37.3,33.8,30.14,NW,312,2.0,3.0,87,0.00,,---,0.00,VWS V14.01,2013-01-03 10:10:00,
2013-01-03 05:11:00,37.3,33.8,30.14,NW,312,0.0,2.0,87,0.00,,---,0.00,VWS V14.01,2013-01-03 10:11:00,
2013-01-03 05:16:00,37.1,33.3,30.14,NW,312,0.0,2.0,86,0.00,,---,0.00,VWS V14.01,2013-01-03 10:16:00,
2013-01-03 05:20:00,37.1,33.6,30.14,NW,312,0.0,2.0,87,0.00,,---,0.00,VWS V14.01,2013-01-03 10:20:00,
2013-01-03 05:21:00,37.1,33.9,30.14,NW,312,0.0,0.0,88,0.00,,---,0.00,VWS V14.01,2013-01-03 10:21:00,
2013-01-03 05:27:00,37.1,33.6,30.14,NW,312,0.0,0.0,87,0.00,,---,0.00,VWS V14.01,2013-01-03 10:27:00,
2013-01-03 05:30:00,37.1,33.6,30.14,NW,312,0.0,0.0,87,0.00,,---,0.00,VWS V14.01,2013-01-03 10:30:00,
2013-01-03 05:32:00,37.2,33.7,30.15,NW,312,0.0,0.0,87,0.00,,---,0.00,VWS V14.01,2013-01-03 10:32:00,
2013-01-03 05:37:00,37.3,34.1,30.14,NW,312,0.0,1.0,88,0.00,,---,0.00,VWS V14.01,2013-01-03 10:37:00,
2013-01-03 05:40:00,37.3,33.8,30.15,NW,312,0.0,1.0,87,0.00,,---,0.00,VWS V14.01,2013-01-03 10:40:00,
2013-01-03 05:42:00,37.3,33.8,30.15,NW,312,0.0,0.0,87,0.00,,---,0.00,VWS V14.01,2013-01-03 10:42:00,
2013-01-03 05:47:00,37.4,33.9,30.14,NW,312,0.0,0.0,87,0.00,,---,0.00,VWS V14.01,2013-01-03 10:47:00,
2013-01-03 05:50:00,37.5,34.0,30.14,NW,312,0.0,0.0,87,0.00,,---,0.00,VWS V14.01,2013-01-03 10:50:00,
2013-01-03 05:52:00,37.5,34.0,30.14,NW,312,0.0,0.0,87,0.00,,---,0.00,VWS V14.01,2013-01-03 10:52:00,
2013-01-03 05:57:00,37.5,33.7,30.15,NW,312,0.0,0.0,86,0.00,,---,0.00,VWS V14.01,2013-01-03 10:57:00,
2013-01-03 06:00:00,37.5,33.7,30.15,NW,312,0.0,0.0,86,0.00,,---,0.00,VWS V14.01,2013-01-03 11:00:00,
2013-01-03 06:02:00,37.5,34.0,30.15,NW,312,0.0,0.0,87,0.00,,---,0.00,VWS V14.01,2013-01-03 11:02:00,
2013-01-03 06:07:00,37.4,33.6,30.16,NW,312,0.0,0.0,86,0.00,,---,0.00,VWS V14.01,2013-01-03 11:07:00,
2013-01-03 06:10:00,37.4,33.9,30.16,NW,312,1.0,2.0,87,0.00,,---,0.00,VWS V14.01,2013-01-03 11:10:00,
2013-01-03 06:13:00,37.3,33.8,30.16,NW,312,1.0,3.0,87,0.00,,---,0.00,VWS V14.01,2013-01-03 11:13:00,
2013-01-03 06:18:00,37.2,33.7,30.16,NW,312,0.0,3.0,87,0.00,,---,0.00,VWS V14.01,2013-01-03 11:18:00,
2013-01-03 06:20:00,37.2,33.7,30.16,NW,312,0.0,3.0,87,0.00,,---,0.00,VWS V14.01,2013-01-03 11:20:00,
2013-01-03 06:23:00,37.1,33.6,30.16,NW,312,1.0,2.0,87,0.00,,---,0.00,VWS V14.01,2013-01-03 11:23:00,
2013-01-03 06:28:00,37.1,33.6,30.16,NW,312,0.0,2.0,87,0.00,,---,0.00,VWS V14.01,2013-01-03 11:28:00,
2013-01-03 06:30:00,37.1,33.6,30.16,NW,312,0.0,2.0,87,0.00,,---,0.00,VWS V14.01,2013-01-03 11:30:00,
2013-01-03 06:33:00,37.1,33.6,30.16,NW,312,0.0,0.0,87,0.00,,---,0.00,VWS V14.01,2013-01-03 11:33:00,
2013-01-03 06:38:00,37.3,33.5,30.17,NW,312,0.0,0.0,86,0.00,,---,0.00,VWS V14.01,2013-01-03 11:38:00,
2013-01-03 06:40:00,37.3,33.5,30.17,NW,312,0.0,0.0,86,0.00,,---,0.00,VWS V14.01,2013-01-03 11:40:00,
2013-01-03 06:43:00,37.5,33.7,30.17,NW,312,0.0,0.0,86,0.00,,---,0.00,VWS V14.01,2013-01-03 11:43:00,
2013-01-03 06:49:00,37.5,33.4,30.17,NW,312,1.0,3.0,85,0.00,,---,0.00,VWS V14.01,2013-01-03 11:49:00,
2013-01-03 06:50:00,37.5,33.7,30.17,NW,312,1.0,3.0,86,0.00,,---,0.00,VWS V14.01,2013-01-03 11:50:00,
2013-01-03 06:54:00,37.4,33.6,30.17,NW,312,1.0,2.0,86,0.00,,---,0.00,VWS V14.01,2013-01-03 11:54:00,
2013-01-03 06:59:00,37.3,33.8,30.17,NW,312,0.0,2.0,87,0.00,,---,0.00,VWS V14.01,2013-01-03 11:59:00,
2013-01-03 07:00:00,37.2,33.7,30.17,NW,312,0.0,2.0,87,0.00,,---,0.00,VWS V14.01,2013-01-03 12:00:00,
2013-01-03 07:04:00,37.0,33.5,30.17,WNW,294,1.0,2.0,87,0.00,,---,0.00,VWS V14.01,2013-01-03 12:04:00,
2013-01-03 07:09:00,36.8,33.6,30.18,WNW,294,0.0,2.0,88,0.00,,---,0.00,VWS V14.01,2013-01-03 12:09:00,
2013-01-03 07:10:00,36.8,33.6,30.18,WNW,294,1.0,2.0,88,0.00,,---,0.00,VWS V14.01,2013-01-03 12:10:00,
2013-01-03 07:14:00,36.7,33.8,30.18,WNW,294,0.0,1.0,89,0.00,,---,0.00,VWS V14.01,2013-01-03 12:14:00,
2013-01-03 07:19:00,36.7,33.8,30.18,NW,323,1.0,2.0,89,0.00,,---,0.00,VWS V14.01,2013-01-03 12:19:00,
2013-01-03 07:20:00,36.7,33.8,30.18,NW,323,0.0,2.0,89,0.00,,---,0.00,VWS V14.01,2013-01-03 12:20:00,
2013-01-03 07:24:00,36.7,33.8,30.18,NNW,327,2.0,2.0,89,0.00,,---,0.00,VWS V14.01,2013-01-03 12:24:00,
2013-01-03 07:29:00,36.7,34.0,30.18,NNW,327,1.0,2.0,90,0.00,,---,0.00,VWS V14.01,2013-01-03 12:29:00,
2013-01-03 07:30:00,36.7,34.0,30.18,NNW,327,1.0,2.0,90,0.00,,---,0.00,VWS V14.01,2013-01-03 12:30:00,
2013-01-03 07:34:00,36.8,34.2,30.18,NNW,327,1.0,3.0,90,0.00,,---,0.00,VWS V14.01,2013-01-03 12:34:00,
2013-01-03 07:39:00,36.8,34.2,30.18,NNW,327,0.0,3.0,90,0.00,,---,0.00,VWS V14.01,2013-01-03 12:39:00,
2013-01-03 07:40:00,36.8,34.2,30.18,NNW,327,0.0,3.0,90,0.00,,---,0.00,VWS V14.01,2013-01-03 12:40:00,
2013-01-03 07:44:00,36.7,34.0,30.18,NNW,327,0.0,1.0,90,0.00,,---,0.00,VWS V14.01,2013-01-03 12:44:00,
2013-01-03 07:50:00,36.7,34.0,30.18,NNW,327,0.0,0.0,90,0.00,,---,0.00,VWS V14.01,2013-01-03 12:50:00,
2013-01-03 07:55:00,36.8,34.4,30.18,NNW,327,0.0,0.0,91,0.00,,---,0.00,VWS V14.01,2013-01-03 12:55:00,
2013-01-03 08:00:00,36.8,34.4,30.18,NNW,327,0.0,0.0,91,0.00,,---,0.00,VWS V14.01,2013-01-03 13:00:00,
2013-01-03 08:05:00,36.8,34.4,30.18,NNW,327,0.0,0.0,91,0.00,,---,0.00,VWS V14.01,2013-01-03 13:05:00,
2013-01-03 08:10:00,36.8,34.4,30.18,NNW,327,0.0,0.0,91,0.00,,---,0.00,VWS V14.01,2013-01-03 13:10:00,
2013-01-03 08:15:00,36.9,34.5,30.18,NNW,327,0.0,0.0,91,0.00,,---,0.00,VWS V14.01,2013-01-03 13:15:00,
2013-01-03 08:20:00,36.9,34.5,30.18,NNW,327,0.0,0.0,91,0.00,,---,0.00,VWS V14.01,2013-01-03 13:20:00,
2013-01-03 08:25:00,36.8,34.7,30.18,NNW,327,0.0,0.0,92,0.00,,---,0.00,VWS V14.01,2013-01-03 13:25:00,
2013-01-03 08:30:00,36.7,34.6,30.18,North,5,0.0,1.0,92,0.00,,---,0.00,VWS V14.01,2013-01-03 13:30:00,
2013-01-03 08:35:00,36.6,34.5,30.18,NNE,32,1.0,2.0,92,0.00,,---,0.00,VWS V14.01,2013-01-03 13:35:00,
2013-01-03 08:40:00,36.5,34.4,30.18,East,86,2.0,2.0,92,0.00,,---,0.00,VWS V14.01,2013-01-03 13:40:00,
2013-01-03 08:45:00,36.4,34.6,30.18,ENE,74,1.0,2.0,93,0.00,,---,0.00,VWS V14.01,2013-01-03 13:45:00,
2013-01-03 08:50:00,36.4,34.6,30.19,ENE,74,0.0,0.0,93,0.00,,---,0.00,VWS V14.01,2013-01-03 13:50:00,
2013-01-03 08:55:00,36.4,34.3,30.19,ENE,74,0.0,0.0,92,0.00,,---,0.00,VWS V14.01,2013-01-03 13:55:00,
2013-01-03 09:00:00,36.5,34.7,30.18,ENE,74,1.0,1.0,93,0.00,,---,0.00,VWS V14.01,2013-01-03 14:00:00,
2013-01-03 09:05:00,36.6,34.8,30.19,ENE,74,0.0,1.0,93,0.00,,---,0.00,VWS V14.01,2013-01-03 14:05:00,
2013-01-03 09:10:00,36.7,34.6,30.19,ENE,75,0.0,2.0,92,0.00,,---,0.00,VWS V14.01,2013-01-03 14:10:00,
2013-01-03 09:11:00,36.7,34.6,30.19,ENE,75,0.0,1.0,92,0.00,,---,0.00,VWS V14.01,2013-01-03 14:11:00,
2013-01-03 09:16:00,36.6,34.8,30.19,ENE,75,0.0,1.0,93,0.00,,---,0.00,VWS V14.01,2013-01-03 14:16:00,
2013-01-03 09:20:00,36.7,34.6,30.19,ENE,75,0.0,1.0,92,0.00,,---,0.00,VWS V14.01,2013-01-03 14:20:00,
2013-01-03 09:21:00,36.7,34.6,30.19,ENE,75,0.0,0.0,92,0.00,,---,0.00,VWS V14.01,2013-01-03 14:21:00,
2013-01-03 09:26:00,36.7,34.6,30.20,ENE,75,0.0,0.0,92,0.00,,---,0.00,VWS V14.01,2013-01-03 14:26:00,
2013-01-03 09:30:00,36.7,34.6,30.20,ENE,75,1.0,1.0,92,0.00,,---,0.00,VWS V14.01,2013-01-03 14:30:00,
2013-01-03 09:31:00,36.7,34.9,30.20,ENE,77,0.0,2.0,93,0.00,,---,0.00,VWS V14.01,2013-01-03 14:31:00,
2013-01-03 09:36:00,36.7,34.9,30.20,ENE,77,0.0,2.0,93,0.00,,---,0.00,VWS V14.01,2013-01-03 14:36:00,
2013-01-03 09:40:00,36.8,35.0,30.20,ENE,77,0.0,2.0,93,0.00,,---,0.00,VWS V14.01,2013-01-03 14:40:00,
2013-01-03 09:41:00,36.8,35.0,30.20,ENE,77,0.0,0.0,93,0.00,,---,0.00,VWS V14.01,2013-01-03 14:41:00,
2013-01-03 09:47:00,36.9,34.8,30.20,ENE,77,0.0,0.0,92,0.00,,---,0.00,VWS V14.01,2013-01-03 14:47:00,
2013-01-03 09:50:00,36.9,34.8,30.20,ENE,77,0.0,0.0,92,0.00,,---,0.00,VWS V14.01,2013-01-03 14:50:00,
2013-01-03 09:52:00,36.8,35.0,30.20,East,84,2.0,2.0,93,0.00,,---,0.00,VWS V14.01,2013-01-03 14:52:00,
2013-01-03 09:57:00,36.8,35.0,30.20,SE,126,1.0,2.0,93,0.00,,---,0.00,VWS V14.01,2013-01-03 14:57:00,
2013-01-03 10:00:00,36.8,35.0,30.20,SE,130,1.0,2.0,93,0.00,,---,0.00,VWS V14.01,2013-01-03 15:00:00,
2013-01-03 10:02:00,36.9,35.1,30.20,SE,130,1.0,2.0,93,0.00,,---,0.00,VWS V14.01,2013-01-03 15:02:00,
2013-01-03 10:07:00,36.9,35.1,30.21,SSE,148,0.0,2.0,93,0.00,,---,0.00,VWS V14.01,2013-01-03 15:07:00,
2013-01-03 10:10:00,36.9,35.1,30.21,SSE,150,0.0,2.0,93,0.00,,---,0.00,VWS V14.01,2013-01-03 15:10:00,
2013-01-03 10:12:00,37.0,35.2,30.21,SE,140,1.0,1.0,93,0.00,,---,0.00,VWS V14.01,2013-01-03 15:12:00,
2013-01-03 10:17:00,37.1,35.3,30.21,SE,125,1.0,2.0,93,0.00,,---,0.00,VWS V14.01,2013-01-03 15:17:00,
2013-01-03 10:20:00,37.1,35.3,30.21,SE,125,1.0,2.0,93,0.00,,---,0.00,VWS V14.01,2013-01-03 15:20:00,
2013-01-03 10:22:00,37.1,35.3,30.20,SE,126,3.0,3.0,93,0.00,,---,0.00,VWS V14.01,2013-01-03 15:22:00,
2013-01-03 10:27:00,37.1,35.0,30.20,SE,133,0.0,3.0,92,0.00,,---,0.00,VWS V14.01,2013-01-03 15:27:00,
2013-01-03 10:30:00,37.2,35.4,30.20,East,101,1.0,3.0,93,0.00,,---,0.00,VWS V14.01,2013-01-03 15:30:00,
2013-01-03 10:32:00,37.3,35.5,30.20,East,88,1.0,2.0,93,0.00,,---,0.00,VWS V14.01,2013-01-03 15:32:00,
2013-01-03 10:37:00,37.4,35.6,30.20,East,80,0.0,3.0,93,0.00,,---,0.00,VWS V14.01,2013-01-03 15:37:00,
2013-01-03 10:40:00,37.4,35.3,30.20,East,80,0.0,3.0,92,0.00,,---,0.00,VWS V14.01,2013-01-03 15:40:00,
2013-01-03 10:42:00,37.4,35.3,30.20,East,94,1.0,2.0,92,0.00,,---,0.00,VWS V14.01,2013-01-03 15:42:00,
2013-01-03 10:47:00,37.5,35.4,30.20,ESE,106,2.0,2.0,92,0.00,,---,0.00,VWS V14.01,2013-01-03 15:47:00,
2013-01-03 10:50:00,37.5,35.4,30.20,SE,125,1.0,2.0,92,0.00,,---,0.00,VWS V14.01,2013-01-03 15:50:00,
2013-01-03 10:53:00,37.6,35.5,30.20,ESE,107,0.0,2.0,92,0.00,,---,0.00,VWS V14.01,2013-01-03 15:53:00,
2013-01-03 10:58:00,37.8,35.7,30.19,SE,129,0.0,2.0,92,0.01,,---,0.01,VWS V14.01,2013-01-03 15:58:00,
2013-01-03 11:00:00,37.8,35.7,30.19,SE,128,1.0,2.0,92,0.01,,---,0.01,VWS V14.01,2013-01-03 16:00:00,
2013-01-03 11:03:00,37.9,35.5,30.19,ESE,102,2.0,3.0,91,0.01,,---,0.01,VWS V14.01,2013-01-03 16:03:00,
2013-01-03 11:08:00,38.0,35.6,30.19,ESE,105,1.0,3.0,91,0.01,,---,0.01,VWS V14.01,2013-01-03 16:08:00,
2013-01-03 11:10:00,38.0,35.9,30.19,ESE,115,1.0,3.0,92,0.01,,---,0.01,VWS V14.01,2013-01-03 16:10:00,
2013-01-03 11:13:00,38.1,35.7,30.18,ESE,103,2.0,3.0,91,0.01,,---,0.01,VWS V14.01,2013-01-03 16:13:00,
2013-01-03 11:18:00,38.2,36.1,30.18,East,90,2.0,3.0,92,0.01,,---,0.01,VWS V14.01,2013-01-03 16:18:00,
2013-01-03 11:20:00,38.2,35.8,30.18,East,86,1.0,3.0,91,0.01,,---,0.01,VWS V14.01,2013-01-03 16:20:00,
2013-01-03 11:23:00,38.2,35.8,30.18,ESE,105,2.0,3.0,91,0.01,,---,0.01,VWS V14.01,2013-01-03 16:23:00,
2013-01-03 11:28:00,38.4,36.0,30.18,East,92,0.0,3.0,91,0.01,,---,0.01,VWS V14.01,2013-01-03 16:28:00,
2013-01-03 11:30:00,38.4,36.0,30.18,East,92,0.0,3.0,91,0.01,,---,0.01,VWS V14.01,2013-01-03 16:30:00,
2013-01-03 11:33:00,38.6,35.9,30.18,East,83,0.0,2.0,90,0.01,,---,0.01,VWS V14.01,2013-01-03 16:33:00,
2013-01-03 11:38:00,38.7,35.7,30.18,East,83,0.0,2.0,89,0.01,,---,0.01,VWS V14.01,2013-01-03 16:38:00,
2013-01-03 11:40:00,38.7,35.7,30.18,East,83,0.0,2.0,89,0.01,,---,0.01,VWS V14.01,2013-01-03 16:40:00,
2013-01-03 11:43:00,38.9,35.7,30.18,East,83,0.0,0.0,88,0.01,,---,0.01,VWS V14.01,2013-01-03 16:43:00,
2013-01-03 11:48:00,39.1,35.8,30.18,East,83,0.0,0.0,88,0.01,,---,0.01,VWS V14.01,2013-01-03 16:48:00,
2013-01-03 11:50:00,39.1,35.8,30.18,East,83,0.0,0.0,88,0.01,,---,0.01,VWS V14.01,2013-01-03 16:50:00,
2013-01-03 11:54:00,39.3,35.8,30.17,NE,41,1.0,2.0,87,0.01,,---,0.01,VWS V14.01,2013-01-03 16:54:00,
2013-01-03 11:59:00,39.6,35.5,30.17,NE,41,0.0,2.0,85,0.01,,---,0.01,VWS V14.01,2013-01-03 16:59:00,
2013-01-03 12:00:00,39.7,35.9,30.17,NE,41,0.0,2.0,86,0.01,,---,0.01,VWS V14.01,2013-01-03 17:00:00,
2013-01-03 12:04:00,39.8,35.7,30.17,NE,41,0.0,2.0,85,0.00,,---,0.01,VWS V14.01,2013-01-03 17:04:00,
2013-01-03 12:09:00,40.0,36.2,30.17,North,355,2.0,3.0,86,0.00,,---,0.01,VWS V14.01,2013-01-03 17:09:00,
2013-01-03 12:10:00,40.0,36.2,30.17,NNW,348,2.0,3.0,86,0.00,,---,0.01,VWS V14.01,2013-01-03 17:10:00,
2013-01-03 12:14:00,40.1,36.0,30.17,NNW,346,0.0,2.0,85,0.00,,---,0.01,VWS V14.01,2013-01-03 17:14:00,
2013-01-03 12:19:00,40.3,35.6,30.16,ENE,74,0.0,2.0,83,0.00,,---,0.01,VWS V14.01,2013-01-03 17:19:00,
2013-01-03 12:20:00,40.3,35.6,30.16,ENE,74,0.0,2.0,83,0.00,,---,0.01,VWS V14.01,2013-01-03 17:20:00,
2013-01-03 12:24:00,40.4,36.0,30.16,SE,138,1.0,1.0,84,0.00,,---,0.01,VWS V14.01,2013-01-03 17:24:00,
2013-01-03 12:29:00,40.5,35.8,30.16,SW,223,1.0,3.0,83,0.00,,---,0.01,VWS V14.01,2013-01-03 17:29:00,
2013-01-03 12:30:00,40.5,35.8,30.16,SW,223,1.0,3.0,83,0.00,,---,0.01,VWS V14.01,2013-01-03 17:30:00,
2013-01-03 12:34:00,40.6,36.2,30.15,SW,223,0.0,2.0,84,0.00,,---,0.01,VWS V14.01,2013-01-03 17:34:00,
2013-01-03 12:39:00,41.0,36.2,30.15,SSW,211,2.0,2.0,83,0.00,,---,0.01,VWS V14.01,2013-01-03 17:39:00,
2013-01-03 12:40:00,41.0,36.5,30.15,SW,223,0.0,2.0,84,0.00,,---,0.01,VWS V14.01,2013-01-03 17:40:00,
2013-01-03 12:45:00,41.2,36.1,30.15,SSW,212,0.0,3.0,82,0.00,,---,0.01,VWS V14.01,2013-01-03 17:45:00,
2013-01-03 12:50:00,41.2,35.8,30.15,SSE,151,2.0,2.0,81,0.00,,---,0.01,VWS V14.01,2013-01-03 17:50:00,
2013-01-03 12:55:00,41.2,36.1,30.15,SSE,151,0.0,2.0,82,0.00,,---,0.01,VWS V14.01,2013-01-03 17:55:00,
2013-01-03 13:00:00,41.3,35.9,30.15,ESE,108,1.0,2.0,81,0.00,,---,0.01,VWS V14.01,2013-01-03 18:00:00,
2013-01-03 13:05:00,41.4,36.0,30.15,ENE,61,2.0,4.0,81,0.00,,---,0.01,VWS V14.01,2013-01-03 18:05:00,
2013-01-03 13:10:00,41.4,36.0,30.15,ENE,63,2.0,2.0,81,0.00,,---,0.01,VWS V14.01,2013-01-03 18:10:00,
2013-01-03 13:15:00,41.4,36.0,30.14,ENE,67,1.0,2.0,81,0.00,,---,0.01,VWS V14.01,2013-01-03 18:15:00,
2013-01-03 13:20:00,41.6,36.2,30.14,NNE,28,0.0,0.0,81,0.00,,---,0.01,VWS V14.01,2013-01-03 18:20:00,
2013-01-03 13:25:00,41.8,35.8,30.14,NNW,347,0.0,1.0,79,0.00,,---,0.01,VWS V14.01,2013-01-03 18:25:00,
2013-01-03 13:30:00,42.0,35.7,30.14,WSW,242,2.0,2.0,78,0.00,,---,0.01,VWS V14.01,2013-01-03 18:30:00,
2013-01-03 13:35:00,42.1,35.4,30.14,NW,322,0.0,2.0,77,0.00,,---,0.01,VWS V14.01,2013-01-03 18:35:00,
2013-01-03 13:40:00,42.2,35.5,30.14,WSW,247,1.0,2.0,77,0.00,,---,0.01,VWS V14.01,2013-01-03 18:40:00,
2013-01-03 13:45:00,42.5,36.1,30.14,West,265,3.0,3.0,78,0.00,,---,0.01,VWS V14.01,2013-01-03 18:45:00,
2013-01-03 13:50:00,42.5,35.5,30.14,SSW,202,2.0,4.0,76,0.00,,---,0.01,VWS V14.01,2013-01-03 18:50:00,
2013-01-03 13:55:00,42.5,35.8,30.14,SSW,211,2.0,4.0,77,0.00,,---,0.01,VWS V14.01,2013-01-03 18:55:00,
2013-01-03 14:00:00,42.6,35.9,30.14,East,94,1.0,4.0,77,0.00,,---,0.01,VWS V14.01,2013-01-03 19:00:00,
2013-01-03 14:01:00,42.8,36.4,30.14,ENE,62,2.0,2.0,78,0.00,,---,0.01,VWS V14.01,2013-01-03 19:01:00,
2013-01-03 14:06:00,43.6,36.5,30.13,ENE,71,2.0,3.0,76,0.00,,---,0.01,VWS V14.01,2013-01-03 19:06:00,
2013-01-03 14:10:00,43.8,36.7,30.14,South,178,1.0,3.0,76,0.00,,---,0.01,VWS V14.01,2013-01-03 19:10:00,
2013-01-03 14:11:00,43.9,37.2,30.13,South,170,3.0,3.0,77,0.00,,---,0.01,VWS V14.01,2013-01-03 19:11:00,
2013-01-03 14:16:00,44.2,36.8,30.13,SE,137,5.0,8.0,75,0.00,,---,0.01,VWS V14.01,2013-01-03 19:16:00,
2013-01-03 14:20:00,43.8,36.4,30.13,SSE,147,3.0,8.0,75,0.00,,---,0.01,VWS V14.01,2013-01-03 19:20:00,
2013-01-03 14:30:00,44.3,36.9,30.13,South,170,2.0,6.0,75,0.00,,---,0.01,VWS V14.01,2013-01-03 19:30:00,
2013-01-03 14:40:00,44.3,35.9,30.13,South,173,3.0,5.0,72,0.00,,---,0.01,VWS V14.01,2013-01-03 19:40:00,
2013-01-03 14:50:00,44.1,36.3,30.14,SSW,198,3.0,6.0,74,0.00,,---,0.01,VWS V14.01,2013-01-03 19:50:00,
2013-01-03 14:51:00,44.1,35.7,30.14,SSW,210,2.0,6.0,72,0.00,,---,0.01,VWS V14.01,2013-01-03 19:51:00,
2013-01-03 14:56:00,43.9,35.8,30.14,South,188,3.0,6.0,73,0.00,,---,0.01,VWS V14.01,2013-01-03 19:56:00,
2013-01-03 15:00:00,44.0,35.9,30.14,South,184,1.0,6.0,73,0.00,,---,0.01,VWS V14.01,2013-01-03 20:00:00,
2013-01-03 15:02:00,44.0,35.9,30.14,SW,217,5.0,5.0,73,0.00,,---,0.01,VWS V14.01,2013-01-03 20:02:00,
2013-01-03 15:07:00,43.8,35.4,30.14,SSW,202,4.0,5.0,72,0.00,,---,0.01,VWS V14.01,2013-01-03 20:07:00,
2013-01-03 15:10:00,43.6,35.2,30.14,SW,232,3.0,6.0,72,0.00,,---,0.01,VWS V14.01,2013-01-03 20:10:00,
2013-01-03 15:12:00,43.5,35.1,30.15,SSW,199,5.0,5.0,72,0.00,,---,0.01,VWS V14.01,2013-01-03 20:12:00,
2013-01-03 15:17:00,43.5,35.1,30.15,SSE,162,3.0,5.0,72,0.00,,---,0.01,VWS V14.01,2013-01-03 20:17:00,
2013-01-03 15:20:00,43.5,35.1,30.15,SSW,196,0.0,5.0,72,0.00,,---,0.01,VWS V14.01,2013-01-03 20:20:00,
2013-01-03 15:22:00,43.6,35.2,30.15,SSE,152,1.0,3.0,72,0.00,,---,0.01,VWS V14.01,2013-01-03 20:22:00,
2013-01-03 15:27:00,43.8,35.4,30.15,SSE,167,3.0,5.0,72,0.00,,---,0.01,VWS V14.01,2013-01-03 20:27:00,
2013-01-03 15:30:00,43.7,35.6,30.15,SW,232,3.0,5.0,73,0.00,,---,0.01,VWS V14.01,2013-01-03 20:30:00,
2013-01-03 15:32:00,43.7,36.0,30.15,SW,227,3.0,5.0,74,0.00,,---,0.01,VWS V14.01,2013-01-03 20:32:00,
2013-01-03 15:37:00,43.7,36.0,30.15,South,189,3.0,5.0,74,0.00,,---,0.01,VWS V14.01,2013-01-03 20:37:00,
2013-01-03 15:40:00,43.7,36.3,30.15,SSE,164,2.0,5.0,75,0.00,,---,0.01,VWS V14.01,2013-01-03 20:40:00,
2013-01-03 15:42:00,43.7,36.6,30.16,SW,219,0.0,2.0,76,0.00,,---,0.01,VWS V14.01,2013-01-03 20:42:00,
2013-01-03 15:47:00,44.0,36.6,30.16,WSW,239,1.0,4.0,75,0.00,,---,0.01,VWS V14.01,2013-01-03 20:47:00,
2013-01-03 15:50:00,44.0,36.6,30.16,South,180,4.0,4.0,75,0.00,,---,0.01,VWS V14.01,2013-01-03 20:50:00,
2013-01-03 15:52:00,44.0,36.6,30.16,South,182,3.0,5.0,75,0.00,,---,0.01,VWS V14.01,2013-01-03 20:52:00,
2013-01-03 15:57:00,43.7,36.3,30.16,NW,321,2.0,6.0,75,0.00,,---,0.01,VWS V14.01,2013-01-03 20:57:00,
2013-01-03 16:00:00,43.7,36.0,30.16,WSW,247,2.0,6.0,74,0.00,,---,0.01,VWS V14.01,2013-01-03 21:00:00,
2013-01-03 16:02:00,43.6,36.2,30.16,SW,219,1.0,3.0,75,0.00,,---,0.01,VWS V14.01,2013-01-03 21:02:00,
2013-01-03 16:07:00,43.4,36.3,30.16,SSW,212,3.0,4.0,76,0.00,,---,0.01,VWS V14.01,2013-01-03 21:07:00,
2013-01-03 16:10:00,43.4,36.3,30.16,South,178,2.0,4.0,76,0.00,,---,0.01,VWS V14.01,2013-01-03 21:10:00,
2013-01-03 16:12:00,43.4,36.7,30.16,SSW,196,3.0,3.0,77,0.00,,---,0.01,VWS V14.01,2013-01-03 21:12:00,
2013-01-03 16:17:00,43.3,36.6,30.16,South,187,0.0,4.0,77,0.00,,---,0.01,VWS V14.01,2013-01-03 21:17:00,
2013-01-03 16:20:00,43.2,36.5,30.16,SW,221,2.0,4.0,77,0.00,,---,0.01,VWS V14.01,2013-01-03 21:20:00,
2013-01-03 16:23:00,43.2,36.5,30.17,SW,226,0.0,2.0,77,0.00,,---,0.01,VWS V14.01,2013-01-03 21:23:00,
2013-01-03 16:28:00,43.2,36.5,30.17,SW,226,0.0,2.0,77,0.00,,---,0.01,VWS V14.01,2013-01-03 21:28:00,
2013-01-03 16:30:00,43.2,36.2,30.17,SW,228,0.0,2.0,76,0.00,,---,0.01,VWS V14.01,2013-01-03 21:30:00,
2013-01-03 16:33:00,43.2,36.2,30.17,SW,233,0.0,2.0,76,0.00,,---,0.01,VWS V14.01,2013-01-03 21:33:00,
2013-01-03 16:38:00,43.1,36.1,30.17,SSE,163,2.0,3.0,76,0.00,,---,0.01,VWS V14.01,2013-01-03 21:38:00,
2013-01-03 16:40:00,43.1,36.1,30.17,South,188,1.0,3.0,76,0.00,,---,0.01,VWS V14.01,2013-01-03 21:40:00,
2013-01-03 16:43:00,43.0,36.0,30.18,SW,220,0.0,3.0,76,0.00,,---,0.01,VWS V14.01,2013-01-03 21:43:00,
2013-01-03 16:48:00,42.9,36.2,30.18,SW,220,0.0,3.0,77,0.00,,---,0.01,VWS V14.01,2013-01-03 21:48:00,
2013-01-03 16:50:00,42.9,36.2,30.18,SW,220,0.0,3.0,77,0.00,,---,0.01,VWS V14.01,2013-01-03 21:50:00,
2013-01-03 16:53:00,42.9,36.2,30.17,SW,223,0.0,2.0,77,0.00,,---,0.01,VWS V14.01,2013-01-03 21:53:00,
2013-01-03 16:58:00,42.5,36.1,30.18,SW,222,1.0,2.0,78,0.00,,---,0.01,VWS V14.01,2013-01-03 21:58:00,
2013-01-03 17:00:00,42.4,36.0,30.18,SW,222,1.0,2.0,78,0.00,,---,0.01,VWS V14.01,2013-01-03 22:00:00,
2013-01-03 17:03:00,41.9,35.9,30.18,SSW,208,0.0,2.0,79,0.00,,---,0.01,VWS V14.01,2013-01-03 22:03:00,
2013-01-03 17:08:00,41.6,35.9,30.18,West,271,0.0,2.0,80,0.00,,---,0.01,VWS V14.01,2013-01-03 22:08:00,
2013-01-03 17:10:00,41.6,35.9,30.18,West,271,0.0,2.0,80,0.00,,---,0.01,VWS V14.01,2013-01-03 22:10:00,
2013-01-03 17:13:00,41.4,35.7,30.18,West,271,1.0,1.0,80,0.00,,---,0.01,VWS V14.01,2013-01-03 22:13:00,
2013-01-03 17:18:00,40.5,35.1,30.19,WSW,254,0.0,2.0,81,0.00,,---,0.01,VWS V14.01,2013-01-03 22:18:00,
2013-01-03 17:20:00,40.4,35.0,30.19,WSW,254,0.0,2.0,81,0.00,,---,0.01,VWS V14.01,2013-01-03 22:20:00,
2013-01-03 17:24:00,39.7,35.0,30.19,WSW,254,1.0,1.0,83,0.00,,---,0.01,VWS V14.01,2013-01-03 22:24:00,
2013-01-03 17:29:00,39.2,34.8,30.19,WSW,254,0.0,2.0,84,0.00,,---,0.01,VWS V14.01,2013-01-03 22:29:00,
2013-01-03 17:30:00,39.1,34.7,30.19,WSW,254,0.0,2.0,84,0.00,,---,0.01,VWS V14.01,2013-01-03 22:30:00,
2013-01-03 17:34:00,38.5,34.1,30.19,WSW,254,0.0,2.0,84,0.00,,---,0.01,VWS V14.01,2013-01-03 22:34:00,
2013-01-03 17:39:00,37.9,33.8,30.20,WSW,254,0.0,2.0,85,0.00,,---,0.01,VWS V14.01,2013-01-03 22:39:00,
2013-01-03 17:40:00,37.8,33.7,30.20,WSW,254,0.0,2.0,85,0.00,,---,0.01,VWS V14.01,2013-01-03 22:40:00,
2013-01-03 17:44:00,37.6,33.8,30.20,SW,233,2.0,3.0,86,0.00,,---,0.01,VWS V14.01,2013-01-03 22:44:00,
2013-01-03 17:49:00,36.8,33.0,30.20,SW,217,0.0,3.0,86,0.00,,---,0.01,VWS V14.01,2013-01-03 22:49:00,
2013-01-03 17:50:00,36.8,33.0,30.20,SW,217,0.0,3.0,86,0.00,,---,0.01,VWS V14.01,2013-01-03 22:50:00,
2013-01-03 17:54:00,36.4,32.9,30.20,SW,217,0.0,0.0,87,0.00,,---,0.01,VWS V14.01,2013-01-03 22:54:00,
2013-01-03 17:59:00,35.9,32.4,30.20,SW,217,0.0,2.0,87,0.00,,---,0.01,VWS V14.01,2013-01-03 22:59:00,
2013-01-03 18:00:00,35.8,32.3,30.20,SW,217,0.0,2.0,87,0.00,,---,0.01,VWS V14.01,2013-01-03 23:00:00,
2013-01-03 18:04:00,35.2,32.3,30.20,SW,217,0.0,1.0,89,0.00,,---,0.01,VWS V14.01,2013-01-03 23:04:00,
2013-01-03 18:09:00,34.5,31.3,30.21,SW,215,0.0,2.0,88,0.00,,---,0.01,VWS V14.01,2013-01-03 23:09:00,
2013-01-03 18:10:00,34.5,31.3,30.21,SW,215,0.0,2.0,88,0.00,,---,0.01,VWS V14.01,2013-01-03 23:10:00,
2013-01-03 18:14:00,34.2,31.3,30.21,SW,215,0.0,0.0,89,0.00,,---,0.01,VWS V14.01,2013-01-03 23:14:00,
2013-01-03 18:19:00,33.8,30.9,30.21,SSW,212,1.0,3.0,89,0.00,,---,0.01,VWS V14.01,2013-01-03 23:19:00,
2013-01-03 18:20:00,33.7,30.8,30.21,SW,214,2.0,3.0,89,0.00,,---,0.01,VWS V14.01,2013-01-03 23:20:00,
2013-01-03 18:24:00,33.7,31.1,30.21,SW,236,3.0,3.0,90,0.00,,---,0.01,VWS V14.01,2013-01-03 23:24:00,
2013-01-03 18:29:00,33.5,30.3,30.21,SSW,209,1.0,3.0,88,0.00,,---,0.01,VWS V14.01,2013-01-03 23:29:00,
2013-01-03 18:30:00,33.5,30.3,30.21,SSW,209,1.0,3.0,88,0.00,,---,0.01,VWS V14.01,2013-01-03 23:30:00,
2013-01-03 18:34:00,33.0,30.1,30.21,SW,230,1.0,2.0,89,0.00,,---,0.01,VWS V14.01,2013-01-03 23:34:00,
2013-01-03 18:39:00,32.6,29.7,30.21,WSW,238,1.0,4.0,89,0.00,,---,0.01,VWS V14.01,2013-01-03 23:39:00,
2013-01-03 18:40:00,32.6,29.7,30.21,WSW,238,1.0,4.0,89,0.00,,---,0.01,VWS V14.01,2013-01-03 23:40:00,
2013-01-03 18:44:00,32.1,29.0,30.21,SW,227,1.0,2.0,88,0.00,,---,0.01,VWS V14.01,2013-01-03 23:44:00,
2013-01-03 18:49:00,32.0,29.1,30.21,NW,321,0.0,0.0,89,0.00,,---,0.01,VWS V14.01,2013-01-03 23:49:00,
2013-01-03 18:50:00,32.0,29.1,30.21,NW,321,0.0,2.0,89,0.00,,---,0.01,VWS V14.01,2013-01-03 23:50:00,
2013-01-03 18:55:00,31.8,28.9,30.22,SW,223,2.0,3.0,89,0.00,,---,0.01,VWS V14.01,2013-01-03 23:55:00,
2013-01-03 19:00:00,31.1,28.5,30.22,SW,230,1.0,2.0,90,0.00,,---,0.01,VWS V14.01,2013-01-04 00:00:00,
2013-01-03 19:05:00,30.7,28.4,30.22,SW,230,1.0,2.0,91,0.00,,---,0.01,VWS V14.01,2013-01-04 00:05:00,
2013-01-03 19:10:00,30.8,28.2,30.22,WSW,241,0.0,0.0,90,0.00,,---,0.01,VWS V14.01,2013-01-04 00:10:00,
2013-01-03 19:15:00,30.7,28.4,30.22,WSW,241,0.0,3.0,91,0.00,,---,0.01,VWS V14.01,2013-01-04 00:15:00,
2013-01-03 19:20:00,30.6,28.0,30.22,WSW,241,0.0,0.0,90,0.00,,---,0.01,VWS V14.01,2013-01-04 00:20:00,
2013-01-03 19:25:00,30.6,28.0,30.23,WSW,241,0.0,0.0,90,0.00,,---,0.01,VWS V14.01,2013-01-04 00:25:00,
2013-01-03 19:30:00,30.6,28.0,30.23,WSW,241,0.0,0.0,90,0.00,,---,0.01,VWS V14.01,2013-01-04 00:30:00,
2013-01-03 19:35:00,30.4,27.5,30.23,WSW,238,0.0,1.0,89,0.00,,---,0.01,VWS V14.01,2013-01-04 00:35:00,
2013-01-03 19:40:00,30.2,27.1,30.23,ESE,119,0.0,2.0,88,0.00,,---,0.01,VWS V14.01,2013-01-04 00:40:00,
2013-01-03 19:45:00,30.1,27.0,30.23,ESE,119,0.0,2.0,88,0.00,,---,0.01,VWS V14.01,2013-01-04 00:45:00,
2013-01-03 19:50:00,30.2,27.4,30.23,ESE,119,0.0,0.0,89,0.00,,---,0.01,VWS V14.01,2013-01-04 00:50:00,
2013-01-03 19:55:00,30.3,27.7,30.23,ESE,117,0.0,1.0,90,0.00,,---,0.01,VWS V14.01,2013-01-04 00:55:00,
2013-01-03 20:00:00,30.2,27.4,30.23,ESE,117,0.0,0.0,89,0.00,,---,0.01,VWS V14.01,2013-01-04 01:00:00,
2013-01-03 20:05:00,30.1,27.0,30.23,ESE,117,0.0,0.0,88,0.00,,---,0.01,VWS V14.01,2013-01-04 01:05:00,
2013-01-03 20:10:00,30.0,27.2,30.24,ESE,117,0.0,0.0,89,0.00,,---,0.01,VWS V14.01,2013-01-04 01:10:00,
2013-01-03 20:15:00,29.8,26.4,30.23,ESE,117,0.0,0.0,87,0.00,,---,0.01,VWS V14.01,2013-01-04 01:15:00,
2013-01-03 20:20:00,29.6,26.2,30.23,ESE,117,1.0,1.0,87,0.00,,---,0.01,VWS V14.01,2013-01-04 01:20:00,
2013-01-03 20:21:00,29.6,26.2,30.23,ESE,117,1.0,2.0,87,0.00,,---,0.01,VWS V14.01,2013-01-04 01:21:00,
2013-01-03 20:26:00,29.3,25.6,30.23,ESE,117,2.0,2.0,86,0.00,,---,0.01,VWS V14.01,2013-01-04 01:26:00,
2013-01-03 20:30:00,29.0,25.9,30.23,ESE,117,1.0,2.0,88,0.00,,---,0.01,VWS V14.01,2013-01-04 01:30:00,
2013-01-03 20:31:00,28.9,25.8,30.23,ESE,118,0.0,1.0,88,0.00,,---,0.01,VWS V14.01,2013-01-04 01:31:00,
2013-01-03 20:36:00,28.7,26.1,30.23,SSW,192,0.0,2.0,90,0.00,,---,0.01,VWS V14.01,2013-01-04 01:36:00,
2013-01-03 20:40:00,28.8,26.0,30.23,SSW,192,0.0,2.0,89,0.00,,---,0.01,VWS V14.01,2013-01-04 01:40:00,
2013-01-03 20:41:00,28.8,26.0,30.24,SSW,192,0.0,0.0,89,0.00,,---,0.01,VWS V14.01,2013-01-04 01:41:00,
2013-01-03 20:46:00,28.8,26.2,30.23,SSW,192,0.0,0.0,90,0.00,,---,0.01,VWS V14.01,2013-01-04 01:46:00,
2013-01-03 20:50:00,28.8,26.2,30.23,SSW,192,1.0,1.0,90,0.00,,---,0.01,VWS V14.01,2013-01-04 01:50:00,
2013-01-03 20:51:00,28.8,26.0,30.24,SSW,200,0.0,1.0,89,0.00,,---,0.01,VWS V14.01,2013-01-04 01:51:00,
2013-01-03 20:56:00,28.8,25.7,30.23,SW,223,0.0,1.0,88,0.00,,---,0.01,VWS V14.01,2013-01-04 01:56:00,
2013-01-03 21:00:00,28.8,25.7,30.23,SW,223,0.0,1.0,88,0.00,,---,0.01,VWS V14.01,2013-01-04 02:00:00,
2013-01-03 21:01:00,28.7,25.9,30.23,SW,223,1.0,1.0,89,0.00,,---,0.01,VWS V14.01,2013-01-04 02:01:00,
2013-01-03 21:06:00,28.7,25.6,30.23,SW,223,0.0,1.0,88,0.00,,---,0.01,VWS V14.01,2013-01-04 02:06:00,
2013-01-03 21:10:00,28.7,25.6,30.23,SW,223,0.0,1.0,88,0.00,,---,0.01,VWS V14.01,2013-01-04 02:10:00,
2013-01-03 21:11:00,28.7,25.3,30.23,SW,223,0.0,0.0,87,0.00,,---,0.01,VWS V14.01,2013-01-04 02:11:00,
2013-01-03 21:16:00,28.7,25.6,30.24,SW,223,0.0,0.0,88,0.00,,---,0.01,VWS V14.01,2013-01-04 02:16:00,
2013-01-03 21:20:00,28.7,25.6,30.24,SW,223,0.0,0.0,88,0.00,,---,0.01,VWS V14.01,2013-01-04 02:20:00,
2013-01-03 21:21:00,28.7,25.6,30.23,SW,223,0.0,0.0,88,0.00,,---,0.01,VWS V14.01,2013-01-04 02:21:00,
2013-01-03 21:26:00,28.7,25.6,30.23,SW,223,0.0,0.0,88,0.00,,---,0.01,VWS V14.01,2013-01-04 02:26:00,
2013-01-03 21:30:00,28.5,25.1,30.23,South,184,0.0,0.0,87,0.00,,---,0.01,VWS V14.01,2013-01-04 02:30:00,
2013-01-03 21:31:00,28.5,25.1,30.24,South,184,0.0,0.0,87,0.00,,---,0.01,VWS V14.01,2013-01-04 02:31:00,
2013-01-03 21:37:00,28.1,24.7,30.24,South,184,0.0,0.0,87,0.00,,---,0.01,VWS V14.01,2013-01-04 02:37:00,
2013-01-03 21:40:00,28.0,24.6,30.24,South,184,0.0,0.0,87,0.00,,---,0.01,VWS V14.01,2013-01-04 02:40:00,
2013-01-03 21:42:00,27.8,24.4,30.24,South,184,0.0,0.0,87,0.00,,---,0.01,VWS V14.01,2013-01-04 02:42:00,
2013-01-03 21:47:00,27.6,24.2,30.24,South,184,0.0,0.0,87,0.00,,---,0.01,VWS V14.01,2013-01-04 02:47:00,
2013-01-03 21:50:00,27.7,24.3,30.24,South,184,0.0,0.0,87,0.00,,---,0.01,VWS V14.01,2013-01-04 02:50:00,
2013-01-03 21:52:00,27.7,24.6,30.24,South,184,0.0,0.0,88,0.00,,---,0.01,VWS V14.01,2013-01-04 02:52:00,
2013-01-03 21:57:00,27.6,24.5,30.24,South,184,0.0,0.0,88,0.00,,---,0.01,VWS V14.01,2013-01-04 02:57:00,
2013-01-03 22:00:00,27.6,24.5,30.24,South,184,0.0,0.0,88,0.00,,---,0.01,VWS V14.01,2013-01-04 03:00:00,
2013-01-03 22:02:00,27.6,24.5,30.25,South,184,0.0,0.0,88,0.00,,---,0.01,VWS V14.01,2013-01-04 03:02:00,
2013-01-03 22:07:00,27.6,24.8,30.25,South,184,0.0,0.0,89,0.00,,---,0.01,VWS V14.01,2013-01-04 03:07:00,
2013-01-03 22:10:00,27.5,24.4,30.25,South,184,0.0,0.0,88,0.00,,---,0.01,VWS V14.01,2013-01-04 03:10:00,
2013-01-03 22:12:00,27.5,24.4,30.25,South,184,0.0,0.0,88,0.00,,---,0.01,VWS V14.01,2013-01-04 03:12:00,
2013-01-03 22:17:00,27.3,24.5,30.25,South,184,0.0,2.0,89,0.00,,---,0.01,VWS V14.01,2013-01-04 03:17:00,
2013-01-03 22:20:00,27.3,24.5,30.25,South,184,0.0,2.0,89,0.00,,---,0.01,VWS V14.01,2013-01-04 03:20:00,
2013-01-03 22:22:00,27.2,24.4,30.25,South,184,0.0,1.0,89,0.00,,---,0.01,VWS V14.01,2013-01-04 03:22:00,
2013-01-03 22:27:00,27.1,24.3,30.25,South,184,0.0,1.0,89,0.00,,---,0.01,VWS V14.01,2013-01-04 03:27:00,
2013-01-03 22:30:00,27.0,24.2,30.25,South,184,0.0,1.0,89,0.00,,---,0.01,VWS V14.01,2013-01-04 03:30:00,
2013-01-03 22:32:00,27.0,24.2,30.25,South,184,0.0,0.0,89,0.00,,---,0.01,VWS V14.01,2013-01-04 03:32:00,
2013-01-03 22:37:00,26.9,24.1,30.25,SSW,198,1.0,2.0,89,0.00,,---,0.01,VWS V14.01,2013-01-04 03:37:00,
2013-01-03 22:40:00,26.8,24.0,30.25,SSW,198,0.0,2.0,89,0.00,,---,0.01,VWS V14.01,2013-01-04 03:40:00,
2013-01-03 22:42:00,26.7,23.9,30.25,SSW,198,1.0,1.0,89,0.00,,---,0.01,VWS V14.01,2013-01-04 03:42:00,
2013-01-03 22:47:00,26.5,23.7,30.25,SSW,198,0.0,2.0,89,0.00,,---,0.01,VWS V14.01,2013-01-04 03:47:00,
2013-01-03 22:50:00,26.4,23.9,30.25,SSW,198,0.0,2.0,90,0.00,,---,0.01,VWS V14.01,2013-01-04 03:50:00,
2013-01-03 22:52:00,26.5,24.0,30.25,SSW,198,0.0,0.0,90,0.00,,---,0.01,VWS V14.01,2013-01-04 03:52:00,
2013-01-03 22:58:00,26.5,23.7,30.25,SSW,198,0.0,0.0,89,0.00,,---,0.01,VWS V14.01,2013-01-04 03:58:00,
2013-01-03 23:00:00,26.4,23.6,30.25,SSW,198,0.0,0.0,89,0.00,,---,0.01,VWS V14.01,2013-01-04 04:00:00,
2013-01-03 23:03:00,26.5,23.7,30.25,SSW,198,0.0,0.0,89,0.00,,---,0.01,VWS V14.01,2013-01-04 04:03:00,
2013-01-03 23:08:00,26.5,23.7,30.25,SSW,198,0.0,0.0,89,0.00,,---,0.01,VWS V14.01,2013-01-04 04:08:00,
2013-01-03 23:10:00,26.5,23.7,30.25,SSW,198,0.0,0.0,89,0.00,,---,0.01,VWS V14.01,2013-01-04 04:10:00,
2013-01-03 23:13:00,26.5,23.7,30.25,SSW,198,0.0,0.0,89,0.00,,---,0.01,VWS V14.01,2013-01-04 04:13:00,
2013-01-03 23:18:00,26.5,23.7,30.25,SSW,198,0.0,0.0,89,0.00,,---,0.01,VWS V14.01,2013-01-04 04:18:00,
2013-01-03 23:20:00,26.5,23.7,30.25,SSW,198,0.0,0.0,89,0.00,,---,0.01,VWS V14.01,2013-01-04 04:20:00,
2013-01-03 23:23:00,26.4,23.6,30.25,SSW,198,0.0,0.0,89,0.00,,---,0.01,VWS V14.01,2013-01-04 04:23:00,
2013-01-03 23:28:00,26.4,23.6,30.25,SSW,198,0.0,0.0,89,0.00,,---,0.01,VWS V14.01,2013-01-04 04:28:00,
2013-01-03 23:30:00,26.3,23.5,30.25,SSW,198,0.0,0.0,89,0.00,,---,0.01,VWS V14.01,2013-01-04 04:30:00,
2013-01-03 23:33:00,26.2,23.7,30.25,SSW,198,0.0,0.0,90,0.00,,---,0.01,VWS V14.01,2013-01-04 04:33:00,
2013-01-03 23:38:00,26.1,23.6,30.25,SSW,198,0.0,0.0,90,0.00,,---,0.01,VWS V14.01,2013-01-04 04:38:00,
2013-01-03 23:40:00,26.1,23.6,30.25,SSW,198,0.0,0.0,90,0.00,,---,0.01,VWS V14.01,2013-01-04 04:40:00,
2013-01-03 23:43:00,26.1,23.6,30.25,SSW,198,0.0,0.0,90,0.00,,---,0.01,VWS V14.01,2013-01-04 04:43:00,
2013-01-03 23:48:00,26.1,23.3,30.25,SSW,199,0.0,0.0,89,0.00,,---,0.01,VWS V14.01,2013-01-04 04:48:00,
2013-01-03 23:50:00,26.1,23.3,30.25,SSW,199,0.0,0.0,89,0.00,,---,0.01,VWS V14.01,2013-01-04 04:50:00,
2013-01-03 23:53:00,26.0,23.5,30.24,SSW,199,0.0,0.0,90,0.00,,---,0.01,VWS V14.01,2013-01-04 04:53:00,
2013-01-03 23:58:00,26.1,23.6,30.25,South,173,0.0,2.0,90,0.00,,---,0.01,VWS V14.01,2013-01-04 04:58:00,